Wind_Speed
4 1 6 9 5 4 4 2 9 8 16 14 19 6 7 4 5 6 25 26 27 23 19 16 15 13 12 13 12 11 11 10 10 10 11 10 11 12 12 12 12 13 12 13 12 12 12 12 11
2 7 2 3 5 2 2 8 9 11 12 17 21 19 19 18 15 19 24 33 29 25 20 19 17 15 13 13 12 12 10 11 10 11 11 11 12 13 12 12 13 12 12 12 12 11 11 11 10
7 8 3 2 5 0 3 9 12 12 17 20 21 13 8 20 24 17 38 32 28 24 20 21 18 15 13 13 12 11 11 10 11 12 11 10 12 12 11 11 12 12 12 12 12 11 10 8 9
5 5 4 3 7 5 8 10 14 19 19 18 14 13 18 31 20 34 39 35 31 28 22 20 17 14 13 14 13 12 12 11 12 12 12 12 12 11 12 12 13 11 11 11 11 9 9 6 6
12 3 1 3 8 6 12 11 7 18 19 18 19 20 18 30 36 39 39 38 35 26 21 18 16 14 14 14 13 12 12 12 12 12 12 11 12 11 12 11 11 11 10 9 8 6 7 6 5
4 3 2 7 10 10 6 14 21 21 20 20 21 20 12 38 32 35 38 32 28 23 19 17 17 16 14 13 13 13 13 13 12 11 12 12 11 12 12 11 12 10 10 8 7 5 4 4 5
5 3 5 12 9 7 7 11 11 17 21 16 17 18 10 21 32 31 31 30 27 23 21 19 18 15 15 14 14 14 13 13 13 12 12 12 13 11 11 10 11 10 9 7 6 6 6 5 5
3 3 2 8 7 9 9 10 12 18 19 21 22 11 12 19 29 29 31 33 29 23 23 19 17 16 15 15 14 13 13 12 12 12 13 12 11 11 10 10 11 10 8 6 7 8 9 6 5
5 4 5 9 10 7 12 12 12 11 21 19 10 16 26 33 32 30 27 25 28 26 22 19 17 15 14 14 14 13 12 13 13 13 13 12 12 11 11 9 7 9 8 8 8 7 6 1 7
5 5 4 9 8 14 14 14 12 19 18 19 19 19 31 31 27 27 19 17 25 27 25 21 20 19 14 15 15 14 14 15 14 12 13 13 11 10 8 8 7 9 9 9 9 8 8 3 7
7 3 11 11 15 15 8 14 15 19 16 17 18 15 23 25 26 26 23 27 25 25 23 24 25 19 15 16 17 16 17 17 15 10 10 11 11 14 9 7 8 8 8 9 10 9 8 5 8
9 11 9 8 9 9 9 8 16 15 16 18 15 13 11 17 14 23 22 26 28 29 27 22 23 23 16 17 18 16 18 17 17 15 10 12 12 15 16 7 7 6 6 8 11 13 9 7 6
11 8 8 11 9 6 13 8 17 19 20 18 15 13 10 14 19 23 28 26 28 30 28 27 24 21 22 20 17 16 22 20 18 17 13 10 12 15 15 13 10 8 13 12 11 12 16 12 11
6 5 11 7 8 11 11 9 15 18 18 17 15 12 10 9 18 18 24 24 25 24 30 29 26 19 17 14 8 22 23 22 18 16 13 9 10 11 13 13 14 13 12 7 12 10 11 10 13
6 6 9 6 7 4 4 10 8 18 16 17 15 14 12 9 21 22 26 23 22 23 21 27 23 19 12 12 7 10 13 18 18 21 17 14 10 7 8 5 15 12 10 7 9 12 12 14 12
7 2 4 10 6 8 7 5 12 15 16 15 15 12 11 10 14 21 26 24 21 27 30 27 20 22 13 12 12 12 11 8 18 18 15 12 14 11 9 7 12 11 10 9 9 14 15 14 15
2 7 5 7 9 8 6 8 10 14 13 13 13 12 13 11 13 19 20 25 22 27 28 24 22 23 20 17 12 15 12 9 11 16 10 10 9 11 7 10 11 11 11 12 14 13 15 13 13
9 5 10 11 9 10 6 7 9 14 15 9 9 10 13 13 14 25 25 23 23 27 24 20 18 26 23 22 14 18 13 11 12 13 13 14 10 7 9 7 11 14 13 11 15 11 10 15 15
19 17 11 10 12 5 9 5 14 16 15 13 10 9 11 15 17 25 30 26 31 29 24 21 15 28 24 25 19 16 15 13 13 16 16 14 12 13 13 9 9 10 13 13 11 12 11 15 17
10 5 14 14 22 7 11 12 16 18 18 18 15 11 13 11 14 19 25 26 35 33 29 26 22 26 24 22 21 19 17 19 19 17 13 12 15 15 16 14 12 11 13 12 14 15 13 15 14
8 5 8 11 15 5 15 9 13 14 16 18 17 17 17 17 15 17 20 25 31 33 35 32 29 26 24 21 19 21 13 9 17 21 17 18 16 17 15 14 14 14 13 15 14 17 16 17 17
8 10 8 10 6 5 9 5 14 14 14 18 18 18 19 19 17 18 22 23 29 34 39 36 34 32 28 25 25 24 17 11 9 15 16 18 23 19 17 12 16 16 17 17 16 14 17 18 20
9 5 8 7 7 5 7 5 7 16 12 15 16 21 20 22 20 21 23 30 34 36 38 39 37 35 31 30 27 22 18 14 14 14 19 21 20 23 17 17 17 19 18 17 16 15 16 17 20
8 6 7 8 2 4 9 9 6 17 19 19 17 19 21 21 21 22 32 34 32 36 37 39 40 39 34 30 31 23 23 19 18 13 9 14 13 18 21 22 20 20 20 20 17 17 18 19 20
6 2 4 5 4 6 16 10 8 20 19 23 21 16 18 22 21 19 21 26 31 34 38 36 41 37 37 32 29 31 22 21 20 14 8 11 11 15 20 27 24 22 23 21 20 21 21 21 22
8 6 5 6 2 3 19 2 6 18 21 22 21 14 15 22 20 22 23 27 32 35 37 37 40 37 39 36 32 30 30 24 17 16 13 12 12 15 4 6 20 21 20 20 18 19 21 21 22
9 9 9 5 7 3 5 4 7 9 10 14 22 13 17 21 20 22 20 27 33 32 38 38 40 38 39 39 33 29 28 28 27 21 18 17 17 18 14 11 12 15 13 16 19 20 21 22 22
11 10 5 4 3 6 4 5 6 8 9 10 16 11 11 10 9 20 17 23 35 34 38 38 42 41 40 36 34 32 29 27 25 22 19 20 16 14 13 9 9 14 17 19 18 19 19 17 19
4 7 6 4 4 5 3 6 17 12 9 11 10 10 12 10 10 10 15 22 31 32 34 34 39 36 35 34 30 30 30 27 24 23 24 19 15 18 18 17 16 17 19 18 19 20 21 10 10
9 13 14 7 8 5 4 7 10 14 15 13 12 11 13 14 12 10 10 21 26 29 32 32 36 36 37 34 32 31 26 26 25 23 20 20 19 18 17 14 16 18 18 18 19 20 17 13 13
Wind_Direction
231 328 31 40 42 17 352 99 90 57 84 100 128 197 103 187 127 142 145 153 142 144 140 135 131 128 123 118 115 117 118 111 104 101 96 96 92 99 103 104 103 104 107 101 96 104 100 96 103
16 343 353 60 60 313 302 105 92 89 104 99 98 97 87 85 92 120 126 139 146 138 135 137 134 122 125 119 115 122 116 110 111 105 106 105 101 105 105 108 107 112 104 102 102 102 102 98 98
92 91 107 177 161 212 236 138 124 98 97 98 102 90 92 115 125 127 136 143 135 131 140 138 134 126 120 126 119 122 120 117 114 114 115 116 113 113 108 108 109 105 105 103 102 103 102 98 106
196 38 263 235 108 131 116 122 112 98 94 103 108 83 87 116 110 132 140 137 136 143 143 138 138 131 128 124 122 122 125 117 115 122 126 123 123 122 111 110 112 115 110 109 102 93 90 84 101
74 116 275 193 128 128 120 122 106 115 103 94 101 105 103 107 120 122 131 135 138 142 139 140 138 136 128 127 128 129 129 123 124 126 132 130 125 122 122 117 116 116 116 118 114 108 94 90 106
65 86 336 100 94 65 79 115 108 118 122 114 104 106 104 122 120 128 132 131 140 134 142 142 143 139 133 132 133 137 138 132 137 136 136 132 129 126 125 129 123 119 117 115 114 117 121 110 101
86 103 247 108 100 138 132 122 129 131 120 119 122 117 129 130 132 133 134 135 138 142 146 145 142 140 140 139 137 144 143 137 140 145 143 144 140 138 137 135 135 124 120 114 108 121 134 119 99
71 179 241 106 100 85 72 124 104 124 133 129 130 140 133 147 133 130 140 140 143 143 135 140 143 145 145 144 145 146 147 146 151 152 151 147 144 148 149 147 142 134 127 121 116 113 122 126 95
149 263 97 114 107 130 93 84 93 117 136 141 115 131 128 134 126 126 131 136 145 146 148 143 143 141 144 150 148 150 154 158 159 157 156 150 151 156 149 141 155 157 154 149 138 157 123 133 143
197 48 127 127 148 115 135 148 160 99 101 111 120 123 134 141 133 132 139 146 147 154 159 160 153 161 170 157 157 156 159 164 163 158 157 156 158 160 161 163 171 176 178 172 170 187 201 194 162
191 150 63 61 100 117 127 138 125 118 119 124 132 143 146 148 142 150 163 161 161 162 161 168 173 174 162 171 165 168 166 165 164 166 181 165 185 181 197 189 185 193 191 192 193 205 214 168 180
94 107 98 131 129 137 150 105 139 126 128 127 136 158 158 153 157 160 158 168 169 168 173 172 181 184 176 182 179 181 183 179 176 185 171 179 188 177 189 205 175 199 213 211 218 224 220 218 215
105 106 113 99 114 153 99 94 113 118 126 131 147 166 173 165 168 172 173 171 175 171 177 172 176 190 190 196 197 203 201 188 182 190 184 179 190 190 209 209 194 219 211 223 208 233 237 232 229
20 6 121 137 117 102 116 126 117 130 131 143 160 175 192 181 164 173 130 139 158 165 180 174 178 181 179 184 212 215 202 197 203 187 172 188 221 204 198 211 205 206 222 260 230 206 224 241 232
90 32 324 132 120 106 116 121 128 137 138 156 174 182 186 166 133 136 145 153 172 173 174 168 174 177 184 195 199 154 163 173 199 208 177 179 177 187 168 183 212 214 217 231 241 227 239 246 244
42 30 349 132 120 17 77 134 138 144 151 171 181 186 154 126 137 149 156 161 188 175 156 162 168 183 190 202 211 174 197 212 177 182 191 197 208 203 218 189 199 214 219 248 250 226 252 246 251
85 245 244 149 111 136 76 150 161 159 167 182 182 160 145 150 149 158 164 173 182 162 159 168 175 179 188 198 193 193 215 227 211 201 204 208 195 206 211 217 225 235 245 262 243 243 262 258 267
184 211 245 157 216 150 156 250 224 177 170 187 162 158 157 157 166 174 175 178 172 158 164 174 188 187 186 191 195 210 224 218 199 201 207 210 199 213 217 229 239 242 257 262 251 249 254 268 277
183 194 219 155 199 104 189 194 195 187 175 174 176 173 163 163 173 175 170 176 167 168 167 177 182 186 181 178 191 215 234 210 203 215 208 212 200 221 228 234 248 249 254 268 267 261 260 263 269
292 83 172 181 175 143 170 214 185 190 182 175 181 179 174 175 165 178 176 169 166 173 177 184 189 178 187 193 202 212 226 223 215 206 216 224 205 218 226 230 239 250 262 264 264 266 271 272 270
309 271 188 168 183 168 156 192 189 201 180 176 184 180 178 181 179 177 185 178 172 174 180 184 193 196 197 198 202 214 234 216 224 226 213 211 213 223 226 228 236 248 248 257 264 267 262 272 288
296 344 345 162 139 184 158 207 192 189 183 178 185 182 184 184 180 177 183 185 177 181 186 190 191 198 205 200 209 220 231 216 204 201 215 226 226 223 232 235 238 242 242 256 261 269 263 263 275
270 315 325 312 246 161 211 112 222 178 189 187 191 183 189 182 179 180 185 188 190 182 184 191 194 198 204 205 210 219 224 227 226 236 235 231 234 226 240 236 239 241 245 255 263 260 270 269 274
255 283 313 301 254 328 224 169 227 182 191 189 198 187 188 180 183 181 185 188 190 184 182 187 193 199 205 207 212 215 219 220 236 248 212 188 204 222 235 236 241 245 250 258 263 266 272 274 275
218 235 311 322 344 239 317 177 218 193 189 187 193 192 185 179 181 182 185 187 190 179 182 183 189 191 202 206 210 215 213 220 231 239 258 216 233 253 259 245 238 240 247 255 258 264 269 273 274
274 193 168 255 287 91 306 235 263 179 191 184 184 187 178 178 182 186 187 186 187 180 180 182 186 190 198 202 210 214 220 221 224 230 232 235 246 271 325 247 233 242 249 250 264 270 272 273 281
239 279 243 263 274 177 235 314 36 144 148 154 175 172 179 182 182 187 185 183 185 180 182 180 183 189 195 202 203 211 217 223 224 229 238 239 238 252 271 269 238 243 251 265 275 278 281 284 287
173 220 291 320 261 286 214 207 204 198 179 157 163 157 162 162 144 182 183 175 183 180 180 178 183 187 193 199 204 208 216 222 224 224 232 238 241 249 248 257 260 275 287 294 287 286 283 294 344
235 220 248 243 162 204 297 237 222 195 169 163 172 165 144 135 130 135 176 176 175 176 176 175 179 182 186 192 200 205 215 219 224 227 235 240 235 241 254 270 279 283 294 296 287 284 282 312 16
233 209 202 217 277 229 205 266 156 154 170 170 176 165 155 149 149 152 141 167 167 169 176 175 176 180 187 190 196 202 209 212 217 223 230 235 241 249 253 263 264 280 288 290 288 289 292 282 266
Height
792 792 788 783 812 810 815 799 773 781 779 769 780 796 788 784 799 832 808 815 820 824 827 831 833 835 837 836 837 837 839 840 841 841 842 843 842 842 843 844 844 846 847 849 850 850 850 851 851
790 795 797 806 833 837 823 785 790 779 773 769 775 781 791 801 787 803 811 817 820 824 828 832 834 836 837 837 837 839 840 841 843 842 843 845 844 845 846 847 847 848 849 850 850 851 852 853 854
794 790 805 821 825 838 823 786 779 768 766 774 783 780 786 801 799 803 811 817 821 825 830 833 835 836 837 838 838 839 841 842 842 843 845 846 847 848 849 850 850 851 851 852 852 853 855 856 857
790 801 799 808 802 790 787 779 768 774 772 773 776 795 788 791 797 804 812 817 822 827 832 834 835 836 837 838 839 840 842 843 842 844 846 847 848 850 851 852 852 853 853 854 855 856 857 858 859
786 804 822 799 792 781 770 766 766 777 778 783 781 800 798 797 801 806 813 816 819 827 831 834 834 836 837 838 840 841 843 843 844 845 847 848 850 852 853 853 853 854 853 854 855 857 858 858 858
792 808 828 806 791 775 768 764 769 775 778 785 792 799 804 802 805 811 814 818 823 825 830 833 835 836 837 839 840 842 842 843 844 846 848 850 852 852 853 854 855 854 854 855 856 856 857 858 859
799 814 813 790 788 781 770 759 770 774 781 789 786 805 805 805 808 812 816 820 824 827 830 833 834 836 838 839 840 841 842 843 845 847 849 850 852 852 853 854 854 855 856 857 857 856 856 858 859
807 816 791 781 791 790 766 762 758 770 782 778 783 808 812 807 809 813 817 821 824 828 830 832 834 836 838 839 840 842 843 845 846 848 849 850 852 853 854 855 855 857 858 858 858 857 857 858 860
795 810 795 788 787 782 766 775 765 763 775 779 780 790 800 804 808 813 816 822 826 829 830 832 834 836 838 839 841 842 844 845 847 848 849 851 852 853 854 855 856 857 857 857 858 858 858 860 860
798 810 783 761 764 773 769 773 771 777 783 790 791 794 801 804 809 812 817 821 826 828 830 831 834 836 838 839 840 842 843 845 847 848 850 851 852 853 855 855 855 855 856 857 857 856 857 860 861
774 787 763 760 757 760 768 769 764 781 796 792 797 796 800 801 808 813 815 817 821 825 829 831 833 835 836 839 841 842 843 845 846 848 850 851 854 854 854 854 854 855 857 858 857 856 856 860 860
771 758 757 757 754 759 767 761 772 778 787 785 791 794 795 799 803 808 810 814 819 823 826 829 832 834 836 838 840 842 843 844 845 847 849 851 853 854 854 854 855 855 856 856 858 857 858 860 860
766 760 753 752 755 758 759 771 777 783 781 785 791 794 795 797 799 803 805 811 816 820 823 826 829 832 834 836 838 840 842 842 845 847 849 850 852 855 854 853 853 853 854 855 857 856 856 858 858
765 758 756 754 758 761 773 776 776 783 781 787 791 793 793 793 797 802 805 809 814 818 822 824 827 831 834 835 837 835 839 842 845 847 848 850 852 853 853 853 853 853 853 855 856 856 854 856 857
766 782 772 764 761 774 771 790 790 780 781 789 790 791 790 792 796 801 805 809 812 816 819 823 826 830 832 834 835 836 839 840 843 846 847 848 849 851 853 853 852 853 852 853 854 854 855 854 855
783 783 808 773 766 781 777 813 786 778 783 790 788 787 790 794 797 800 804 808 812 815 818 822 825 829 832 833 834 835 837 840 840 843 845 847 848 849 850 851 851 852 851 851 852 851 851 850 852
799 817 800 792 769 779 793 803 782 776 783 788 786 787 791 794 797 800 804 807 811 813 816 821 823 826 830 832 834 835 836 838 839 841 843 845 846 847 848 850 850 849 850 851 850 850 849 848 847
808 812 793 799 784 764 793 801 784 776 780 784 785 787 790 793 795 797 802 805 809 813 816 819 822 824 827 830 833 834 835 837 838 839 841 843 845 846 847 848 848 847 847 847 847 848 847 844 843
770 783 782 772 768 780 792 797 784 773 777 783 785 786 788 789 790 793 798 802 806 810 813 817 820 823 825 828 830 832 833 835 836 837 839 841 842 844 845 845 846 846 846 845 845 845 843 842 841
749 756 769 772 761 766 791 797 776 769 771 772 777 782 783 784 787 790 794 798 801 805 809 814 819 822 824 826 828 831 831 832 832 835 836 838 840 841 842 843 844 844 843 843 843 843 842 840 839
753 758 754 766 757 744 780 796 783 766 762 763 764 766 771 776 781 786 789 793 797 801 805 808 815 818 821 823 826 828 830 829 831 833 834 836 837 839 840 841 842 842 841 841 840 839 838 837 834
775 735 737 748 770 800 759 828 788 770 766 762 760 761 763 766 770 776 782 786 791 795 799 803 808 813 817 821 823 825 826 827 829 830 831 831 833 836 838 838 838 838 839 838 837 837 835 834 831
758 732 743 745 761 768 768 802 786 765 774 763 754 750 751 753 758 766 770 775 781 788 792 797 803 807 811 816 819 822 823 824 826 828 828 829 831 833 833 833 833 833 834 834 834 834 833 832 830
723 739 744 751 763 807 773 782 792 771 757 750 742 740 740 745 750 755 761 768 773 778 784 790 795 800 805 811 815 819 821 823 825 826 826 827 827 828 828 828 829 830 831 830 831 831 830 828 827
734 756 816 820 818 816 752 770 770 735 730 730 733 732 731 735 742 748 754 759 764 770 776 782 788 794 799 804 810 814 817 819 821 823 824 825 825 826 825 825 826 826 826 827 827 826 826 824 823
751 762 811 827 818 792 743 774 754 710 706 709 714 718 722 728 732 737 741 748 755 761 768 775 781 787 792 797 802 808 812 815 817 819 820 821 822 822 822 820 822 823 823 823 823 822 821 821 819
751 769 747 781 768 796 776 740 722 710 713 707 712 714 717 720 723 728 734 740 748 754 760 766 773 780 785 791 796 802 806 809 812 815 817 818 819 819 820 819 820 820 821 821 819 819 818 818 817
732 726 778 780 810 815 782 764 774 738 726 714 715 716 713 713 717 722 728 734 740 747 754 760 766 772 778 785 791 796 800 804 807 811 812 814 815 816 816 817 817 817 817 817 815 815 812 813 814
741 749 746 754 775 810 811 777 706 726 720 718 716 710 711 712 714 718 724 729 735 742 749 755 761 768 775 779 785 790 795 799 803 806 809 810 812 812 813 814 814 814 813 812 810 810 807 812 809
713 732 736 770 785 771 778 775 692 698 701 701 706 706 703 703 708 712 718 724 731 738 745 750 756 762 768 774 779 784 789 794 797 801 803 805 807 808 809 810 810 810 809 808 806 804 804 806 804